Regional Weather Roundup
Issued by NWS

Home | Current Version | Previous Version | Graphics & Text | Print | Product List | Glossary On
Versions: 1 2 3 4 5 6 7 8 9 10 11 12 13 14 15 16 17 18 19 20 21 22 23 24 25 26 27 28 29 30 31 32 33 34 35 36 37 38 39 40 41 42 43 44 45 46 47 48 49 50
000
ASUS45 KTFX 180119
RWRMT
MONTANA HOURLY WEATHER ROUNDUP
NATIONAL WEATHER SERVICE GREAT FALLS MT
719 PM MDT THU APR 17 2014

NOTE: "FAIR" INDICATES FEW OR NO CLOUDS BELOW 12000 FEET WITH NO
SIGNIFICANT WEATHER AND/OR OBSTRUCTIONS TO VISIBILITY.

* THESE STATIONS ARE NOT UNDER NWS QUALITY CONTROL. THEY DO NOT
   REPORT WEATHER SUCH AS PRECIPITATION OR FOG.

MTZ001>007-043-180200-
WEST OF THE DIVIDE
CITY           SKY/WX    TMP DP  RH WIND       PRES   REMARKS
KALISPELL      LGT RAIN  46  43  89 S9        29.75F
MISSOULA       CLOUDY    52  41  66 NW14      29.77S
BUTTE          CLOUDY    57  27  32 SW8       29.76F
MULLAN PASS    LGT SNOW  34  34 100 VRB3      29.76F VSB M1/4
* ESSEX        N/A       41  40  96 SW1        N/A
* LINCOLN      N/A       51  37  59 W4G10      N/A
* LOOKOUT PASS N/A       39  38  96 SE2        N/A
* POLSON       N/A       46  45  96 SW2G7      N/A
* SEELEY LAKE  N/A       46  41  83 N4         N/A
* THOMP F APT  CLOUDY    54  19  25 S14G26     N/A
* YAAK HILL    N/A       48  44  86 N/A        N/A
$$

MTZ008-052>055-180200-
SOUTHWEST MONTANA
CITY           SKY/WX    TMP DP  RH WIND       PRES   REMARKS
BOZEMAN        CLOUDY    61  27  27 S12       29.78F
DILLON         CLOUDY    61  21  21 S15       29.75F
W YELLOWSTONE  N/A       47  23  39 SW6G19     N/A
* THREE FORKS  CLOUDY    63  27  26 S23G32     N/A
* BOULDER HILL N/A       53  28  38 S12G17     N/A
* MONIDA PASS  N/A       52  19  27 SE13G21    N/A
* RAYNOLDS PAS N/A       44  26  49 S15        N/A
* WHITEHALL    N/A       62  27  26 SW8G16     N/A
* WISE RIVER   N/A       56  26  32 NW7G17     N/A
$$

MTZ009>010-012-014-046-048-049-054-180200-
EAST SLOPES AND CENTRAL MONTANA
CITY           SKY/WX    TMP DP  RH WIND       PRES   REMARKS
CUT BANK       CLOUDY    52  36  55 SW16      29.70F
GREAT FALLS    CLOUDY    55  34  45 W8        29.72F
HELENA         CLOUDY    61  34  36 N3        29.71F
MALMSTROM AFB  LGT RAIN  57  34  42 SW6       29.70F
* CONRAD       CLOUDY    57  36  46 N/A        N/A
* DEARBORN     N/A       59  33  38 S11G16     N/A
* EAST GLACIER N/A       42  35  76 W18G23     N/A
* MONARCH      N/A       50  21  32 SW8        N/A
* PENDROY      N/A       53  28  38 W11        N/A
* ROGERS PASS  N/A       46  33  61 SE5G12     N/A
* SAINT MARY   N/A       44  34  68 S6G12      N/A
* SWEET GRASS  N/A       51  36  57 S12        N/A
* WHITE SULPH  N/A       53  29  40 W5G11      N/A
$$

MTZ011-013-016-021-035-040-045-047-050-051-180200-
NORTH CENTRAL MONTANA
CITY           SKY/WX    TMP DP  RH WIND       PRES   REMARKS
HAVRE          CLOUDY    55  34  45 CALM      29.74F
LEWISTOWN      CLOUDY    52  34  50 E13       29.78F
* CHINOOK      CLOUDY    55  36  49 SE7       29.75F
* FORT BENTON  CLOUDY    57  34  42 E7        29.74F
* CHESTER      N/A       52  33  48 SE7        N/A
* DENTON       N/A       53  31  43 E10        N/A
* GEYSER       N/A       53  27  37 E5G12      N/A
* JUDITH GAP   N/A       51  25  36 SE9        N/A
* LOMA         N/A       57  32  39 E9         N/A
$$

MTZ017>020-022>027-061-062-180200-
NORTHEAST MONTANA
CITY           SKY/WX    TMP DP  RH WIND       PRES   REMARKS
GLASGOW        CLOUDY    54  34  47 E18G25    29.83F
GLENDIVE       CLOUDY    52  30  43 SE12      29.92S
JORDAN         CLOUDY    57  30  36 SE8       29.81S
SIDNEY         CLOUDY    45  30  56 SE12      29.99F
WOLF POINT     CLOUDY    52  30  43 E16       29.91S
* BEAVER HILL  N/A       48  31  52 E20G29     N/A
* CIRCLE       N/A       55  35  47 SE6G13     N/A
* LINDSAY DVD  N/A       50  34  54 E16        N/A
* NAVAJO       N/A       44  28  53 SE19G26    N/A
* SACO         N/A       56  31  39 E16G21     N/A
$$

MTZ028>042-056>058-180200-
SOUTHCENTRAL AND SOUTHEAST MONTANA
CITY           SKY/WX    TMP DP  RH WIND       PRES   REMARKS
BAKER          MOCLDY    50  30  46 SE21G28   29.92F
BILLINGS       CLOUDY    61  25  25 SE6       29.79F
LIVINGSTON     CLOUDY    57  27  32 SW23G29   29.79S
MILES CITY     CLOUDY    57  30  36 SE5       29.84F
* LAUREL APT   CLOUDY    63  27  26 E7         N/A
* ROUNDUP APT  CLOUDY    57  30  36 N/A        N/A
* HYSHAM       N/A       59  23  25 SW1        N/A
* LAME DEER    N/A       54  27  35 S4G9       N/A
* REED POINT   N/A       60  28  30 E4         N/A
* ROSCOE HILL  N/A       52  12  20 SW12G19    N/A
$$

REGIONAL REPORTS...DAKOTAS
CITY           SKY/WX    TMP DP  RH WIND       PRES   REMARKS
WILLISTON      CLOUDY    43  27  53 SE10      30.03F
DICKINSON      MOCLDY    45  25  45 SE15      30.00F
CROSBY         MOCLDY    39  27  62 SE14      30.06F WCI  31
TIOGA          CLOUDY    39  27  62 SE17      30.08F WCI  30
WATFORD CITY   CLEAR     39  27  62 SE12G18   30.01F WCI  32
BISMARCK       CLOUDY    45  23  42 S14       30.14F
GRAND FORKS    MOCLDY    37  14  39 N5        30.29S WCI  33
FARGO          PTCLDY    41  18  39 N5        30.27S
BUFFALO SD     PTCLDY    48  30  50 SE23      29.89F
RAPID CITY     PTCLDY    52  36  55 SE15      29.96F
$$

REGIONAL REPORTS...WYOMING/IDAHO/WASHINGTON
CITY           SKY/WX    TMP DP  RH WIND       PRES   REMARKS
GILLETTE       PTCLDY    57  25  29 S6        29.87S
SHERIDAN       CLEAR     57  30  36 SE7       29.83F
CODY           MOCLDY    59  25  27 W9G17     29.83F
YELLOWSTONE LA PTCLDY    43  21  42 W3        29.98F
SALMON         MOCLDY    61  30  31 NW6       29.70S
MULLAN PASS    LGT SNOW  34  34 100 VRB3      29.76S VSB M1/4
SAND POINT     N/A       46  46 100 S5        29.76F
SPOKANE        LGT RAIN  48  45  89 SW10      29.76F
$$

REGIONAL REPORTS...ALBERTA
CITY           SKY/WX    TMP DP  RH WIND       PRES   REMARKS
CALGARY        CLOUDY    41  36  82 NE9       29.68F
LETHBRIDGE     CLOUDY    54  37  53 S10G22    29.66F
MEDICINE HAT   CLOUDY    52  41  66 E5        29.71F
EDMONTON       LGT SNOW  30  27  89 E16       29.82F WCI  19
WATERTON GATE  N/A       43  36  76 SW9        N/A
CARDSTON       N/A       50  37  61 S9         N/A
MILK RIVER     N/A       52  36  55 S13        N/A
$$

REGIONAL REPORTS...SASKATCHEWAN
CITY           SKY/WX    TMP DP  RH WIND       PRES   REMARKS
SWIFT CURRENT  CLOUDY    48  30  50 SE16      29.80F
REGINA         N/A       39  25  57 SE22G29   30.03F WCI  29
VAL MARIE      N/A       52  28  40 S16G23     N/A
ASSINIBOIA     N/A       45  28  51 SE13       N/A
CORONACH       N/A       46  28  50 SE17       N/A

$$




USA.gov is the U.S. government's official web portal to all federal, state and local government web resources and services.